Zurück zum Katalog

STARLINK-33716

AktivKommunikationVLEO
NORAD 63486·PAYLOAD·🇺🇸 United States

Gestartet Apr 6, 2025 von Cape Canaveral Space Force Station

Loading…

Nächste Überflüge (nächste 24 Stunden)

TLE

AktuellSource: CelesTrak SupGP

Epoche: Sep 14, 2026, 14:20 UTC

1 63486C 25070AC  26257.59770833  .00017492  00000+0  63390-3 0  2578
2 63486  43.0019 272.7631 0001162 288.8371 282.2437 15.27552585    15

Verfolge STARLINK-33716 in Echtzeit mit AllMySat

Download on the App Store